TimeCST,TemperatureF,Dew PointF,Humidity,Sea Level PressureIn,VisibilityMPH,Wind Direction,Wind SpeedMPH,Gust SpeedMPH,PrecipitationIn,Events,Conditions,WindDirDegrees,DateUTC
12:53 AM,62.1,61.0,96,30.01,7.0,ENE,3.5,-,N/A,,Overcast,60,2011-11-26 06:53:00
1:53 AM,64.0,62.1,93,30.01,7.0,ESE,5.8,-,N/A,,Mostly Cloudy,110,2011-11-26 07:53:00
2:53 AM,63.0,62.1,97,29.99,6.0,ESE,5.8,-,N/A,,Clear,120,2011-11-26 08:53:00
3:53 AM,63.0,62.1,97,29.98,7.0,SE,5.8,-,N/A,,Clear,130,2011-11-26 09:53:00
4:53 AM,62.1,61.0,96,29.98,5.0,SE,4.6,-,N/A,,Clear,140,2011-11-26 10:53:00
5:53 AM,63.0,62.1,97,29.98,6.0,SE,5.8,-,N/A,,Partly Cloudy,130,2011-11-26 11:53:00
6:53 AM,63.0,62.1,97,29.98,5.0,ESE,4.6,-,N/A,,Clear,110,2011-11-26 12:53:00
7:53 AM,66.0,64.9,96,29.99,7.0,SE,5.8,-,N/A,,Partly Cloudy,130,2011-11-26 13:53:00
8:53 AM,71.6,68.0,88,29.96,10.0,SE,12.7,-,N/A,,Partly Cloudy,140,2011-11-26 14:53:00
9:31 AM,75.2,69.8,83,29.96,10.0,SSE,12.7,-,N/A,,Mostly Cloudy,150,2011-11-26 15:31:00
9:41 AM,75.2,69.8,83,29.96,10.0,SSE,16.1,21.9,N/A,,Mostly Cloudy,160,2011-11-26 15:41:00
9:53 AM,77.0,70.0,79,29.99,10.0,South,12.7,19.6,N/A,,Mostly Cloudy,170,2011-11-26 15:53:00
10:22 AM,77.0,69.8,78,29.96,10.0,South,9.2,19.6,N/A,,Overcast,180,2011-11-26 16:22:00
10:53 AM,78.1,70.0,76,29.98,10.0,South,15.0,-,N/A,,Overcast,170,2011-11-26 16:53:00
11:44 AM,77.0,69.8,78,29.92,10.0,South,16.1,24.2,N/A,,Overcast,180,2011-11-26 17:44:00
11:53 AM,78.1,70.0,76,29.94,10.0,South,13.8,21.9,N/A,,Overcast,180,2011-11-26 17:53:00
12:53 PM,78.1,69.1,74,29.89,10.0,South,17.3,25.3,N/A,,Mostly Cloudy,180,2011-11-26 18:53:00
1:45 PM,78.8,69.8,74,29.86,10.0,South,12.7,21.9,N/A,,Mostly Cloudy,180,2011-11-26 19:45:00
1:53 PM,77.0,70.0,79,29.89,10.0,South,13.8,21.9,N/A,,Mostly Cloudy,190,2011-11-26 19:53:00
2:02 PM,77.0,69.8,78,29.86,10.0,South,16.1,25.3,N/A,,Mostly Cloudy,180,2011-11-26 20:02:00
2:14 PM,77.0,69.8,78,29.86,10.0,South,12.7,21.9,N/A,,Mostly Cloudy,190,2011-11-26 20:14:00
2:33 PM,75.2,71.6,89,29.85,10.0,South,13.8,19.6,N/A,,Mostly Cloudy,180,2011-11-26 20:33:00
2:51 PM,75.2,71.6,89,29.86,10.0,South,12.7,23.0,N/A,,Mostly Cloudy,190,2011-11-26 20:51:00
2:53 PM,75.9,71.1,85,29.88,10.0,South,12.7,23.0,N/A,,Mostly Cloudy,190,2011-11-26 20:53:00
3:53 PM,66.0,62.1,87,29.90,7.0,NNW,19.6,31.1,0.00,Rain-Thunderstorm,Rain,330,2011-11-26 21:53:00
3:56 PM,64.4,60.8,88,29.85,3.0,NNW,34.5,44.9,0.00,Rain-Thunderstorm,Heavy Rain,330,2011-11-26 21:56:00
3:58 PM,62.6,60.8,94,29.86,1.8,NNW,28.8,44.9,0.02,Rain-Thunderstorm,Heavy Rain,330,2011-11-26 21:58:00
4:10 PM,62.6,59.0,88,29.89,2.5,NNW,23.0,34.5,0.10,Rain-Thunderstorm,Rain,330,2011-11-26 22:10:00
4:20 PM,62.6,59.0,88,29.89,1.5,NNW,19.6,27.6,0.17,Rain-Thunderstorm,Heavy Rain,330,2011-11-26 22:20:00
4:23 PM,62.6,59.0,88,29.90,1.8,NNW,16.1,27.6,0.18,Rain-Thunderstorm,Rain,330,2011-11-26 22:23:00
4:26 PM,62.6,59.0,88,29.90,3.0,NW,16.1,27.6,0.19,Rain-Thunderstorm,Rain,320,2011-11-26 22:26:00
4:53 PM,62.1,60.1,93,29.94,10.0,NNW,15.0,-,0.19,,Overcast,340,2011-11-26 22:53:00
5:53 PM,60.8,57.2,88,29.92,10.0,NNW,9.2,-,N/A,Rain,Light Rain,330,2011-11-26 23:53:00
6:07 PM,60.8,59.0,94,29.93,10.0,NNW,6.9,-,0.00,Rain,Light Rain,330,2011-11-27 00:07:00
6:26 PM,60.8,59.0,94,29.94,3.0,NNW,6.9,-,0.03,Rain,Heavy Rain,330,2011-11-27 00:26:00
6:36 PM,60.8,57.2,88,29.94,4.0,North,8.1,-,0.08,Rain,Rain,350,2011-11-27 00:36:00
6:53 PM,60.1,57.9,93,29.97,9.0,North,4.6,-,0.12,Rain,Light Rain,350,2011-11-27 00:53:00
7:41 PM,60.8,57.2,88,29.99,4.0,WNW,3.5,-,0.06,Rain,Heavy Rain,290,2011-11-27 01:41:00
7:53 PM,60.1,57.9,93,30.01,6.0,WNW,4.6,-,0.08,Rain,Light Rain,300,2011-11-27 01:53:00
7:55 PM,60.8,57.2,88,29.98,7.0,WNW,3.5,-,0.00,Rain,Light Rain,300,2011-11-27 01:55:00
8:53 PM,60.1,57.9,93,30.02,10.0,NW,6.9,-,0.02,Rain,Light Rain,310,2011-11-27 02:53:00
9:10 PM,60.8,57.2,88,30.01,10.0,WNW,4.6,-,0.00,Rain,Light Rain,300,2011-11-27 03:10:00
9:42 PM,59.0,55.4,88,30.02,10.0,NW,11.5,18.4,0.00,Rain,Light Rain,310,2011-11-27 03:42:00
9:53 PM,57.2,55.4,94,30.03,10.0,WNW,13.8,21.9,N/A,Rain,Light Rain,300,2011-11-27 03:53:00
10:00 PM,57.2,55.4,94,30.03,10.0,WNW,15.0,21.9,0.00,Rain,Light Rain,300,2011-11-27 04:00:00
10:29 PM,55.4,51.8,88,30.04,10.0,NW,16.1,26.5,0.00,Rain,Light Rain,310,2011-11-27 04:29:00
10:53 PM,55.0,52.0,89,30.06,10.0,NNW,12.7,19.6,0.01,Rain,Light Rain,330,2011-11-27 04:53:00
11:19 PM,53.6,48.2,82,30.03,10.0,NW,19.6,26.5,0.00,Rain,Light Rain,320,2011-11-27 05:19:00
11:34 PM,53.6,48.2,82,30.05,10.0,NW,13.8,20.7,0.00,Rain,Light Rain,320,2011-11-27 05:34:00
11:53 PM,53.1,48.9,86,30.09,10.0,WNW,10.4,-,0.00,Rain,Light Rain,300,2011-11-27 05:53:00